West Memphis, AR

4:59 PM CDT on August 27, 2016 (GMT -0500)
West Memphis Municipal

Weather History for KAWM - January, 2014

Change the Weather History Date:

Sunday, January 19, 2014

  Actual Average Record
Temperature  
Mean Temperature 39 °F -  
Max Temperature 48 °F 45 °F 71 °F (1974)
Min Temperature 30 °F 29 °F 5 °F (1977)
Degree Days  
Heating Degree Days 26    
Moisture  
Dew Point 27 °F    
Average Humidity 63    
Maximum Humidity 79    
Minimum Humidity 44    
Precipitation  
Precipitation 0.00 in - - ()
Sea Level Pressure  
Sea Level Pressure 30.10 in    
Wind  
Wind Speed 7 mph (WSW)    
Max Wind Speed 10 mph    
Max Gust Speed 18 mph    
Visibility 10 miles    
Events      
Averages and records for this station are not official NWS values.
T = Trace of Precipitation, MM = Missing Value Source: NWS Daily Summary

Daily Weather History Graph

Daily Weather History Graph

Search for Another Location

Airport or City:

Trip Planner

Search our weather history database for the weather conditions in past years. The results will help you decide how hot, cold, wet, or windy it might be!

Date:

Astronomy

Jan. 19, 2014 Rise Set
Actual Time 7:07 AM CST 5:16 PM CST
Civil Twilight 6:40 AM CST 5:43 PM CST
Nautical Twilight 6:09 AM CST 6:14 PM CST
Astronomical Twilight 5:38 AM CST 6:44 PM CST
Moon 8:44 PM CST (1/19) 8:46 AM CST (1/19)
Length of Visible Light 11h 03m
Length of Day
10h 08m
Waning Gibbous, 89% of the Moon is Illuminated
Jan 19
Waning Gibbous
Jan 23
Last Quarter
Jan 30
New
Feb 6
First Quarter
Feb 14
Full

Hourly Weather History & Observations

Time (CST) Temp. Windchill Dew Point Humidity Pressure Visibility Wind Dir Wind Speed Gust Speed Precip Events Conditions
12:53 AM 43.0 °F 38.8 °F 27.0 °F 53% 29.98 in 10.0 mi WNW 6.9 mph - N/A   Clear
1:53 AM 41.0 °F 36.4 °F 28.9 °F 62% 30.03 in 10.0 mi NNW 6.9 mph 18.4 mph N/A   Mostly Cloudy
2:53 AM 37.0 °F 32.4 °F 27.0 °F 67% 30.07 in 10.0 mi NNW 5.8 mph - N/A   Clear
3:53 AM 35.1 °F 30.1 °F 26.1 °F 70% 30.09 in 10.0 mi NNW 5.8 mph - N/A   Clear
4:02 AM 35.6 °F 31.7 °F 26.6 °F 70% 30.09 in 1.2 mi NNW 4.6 mph - N/A   Haze
4:10 AM 35.6 °F 29.9 °F 26.6 °F 70% 30.09 in 10.0 mi NNW 6.9 mph - N/A   Clear
4:53 AM 34.0 °F 26.6 °F 25.0 °F 70% 30.10 in 10.0 mi North 9.2 mph - N/A   Clear
5:53 AM 33.1 °F 24.9 °F 24.1 °F 70% 30.13 in 10.0 mi NNW 10.4 mph 18.4 mph N/A   Clear
6:53 AM 30.9 °F 26.2 °F 25.0 °F 79% 30.15 in 10.0 mi Variable 4.6 mph - N/A   Clear
7:53 AM 32.0 °F 27.5 °F 25.0 °F 75% 30.18 in 10.0 mi NW 4.6 mph - N/A   Clear
8:53 AM 33.1 °F 27.7 °F 25.0 °F 72% 30.21 in 10.0 mi WNW 5.8 mph - N/A   Clear
9:53 AM 35.1 °F 28.6 °F 24.1 °F 64% 30.24 in 10.0 mi NW 8.1 mph - N/A   Clear
10:53 AM 37.0 °F 32.4 °F 25.0 °F 62% 30.22 in 10.0 mi NW 5.8 mph - N/A   Clear
11:53 AM 39.9 °F 36.7 °F 25.0 °F 55% 30.19 in 10.0 mi West 4.6 mph - N/A   Clear
12:53 PM 43.0 °F 37.7 °F 27.0 °F 53% 30.16 in 10.0 mi SSW 9.2 mph - N/A   Clear
1:53 PM 45.0 °F 40.1 °F 26.1 °F 48% 30.13 in 10.0 mi SW 9.2 mph - N/A   Clear
2:53 PM 48.0 °F - 28.9 °F 48% 30.10 in 10.0 mi South 10.4 mph - N/A   Clear
3:53 PM 48.9 °F - 28.0 °F 44% 30.09 in 10.0 mi South 10.4 mph - N/A   Clear
4:53 PM 45.0 °F 40.1 °F 28.9 °F 53% 30.09 in 10.0 mi South 9.2 mph - N/A   Clear
5:53 PM 39.0 °F 34.0 °F 28.9 °F 67% 30.07 in 10.0 mi South 6.9 mph - N/A   Clear
6:53 PM 39.0 °F 32.8 °F 28.9 °F 67% 30.07 in 10.0 mi South 9.2 mph - N/A   Clear
7:53 PM 39.9 °F 33.9 °F 28.9 °F 65% 30.06 in 10.0 mi South 9.2 mph - N/A   Clear
8:53 PM 39.9 °F 33.9 °F 30.0 °F 68% 30.04 in 10.0 mi South 9.2 mph - N/A   Clear
9:53 PM 43.0 °F 37.7 °F 30.0 °F 60% 30.03 in 10.0 mi South 9.2 mph - N/A   Clear
10:53 PM 43.0 °F 37.7 °F 28.9 °F 58% 30.03 in 10.0 mi SSW 9.2 mph - N/A   Clear
11:53 PM 39.9 °F 34.5 °F 28.9 °F 65% 30.01 in 10.0 mi South 8.1 mph - N/A   Clear